{"data":{"norad_id":57871,"epoch":"2026-05-24T21:58:55.565760Z","epoch_age_seconds":75569,"freshness":"FRESH","line1":"1 57871U 23144H   26144.91592090  .00011742  00000+0  43549-3 0  9996","line2":"2 57871  43.0021 214.8566 0002211 272.8426  87.2172 15.27583411149018","mean_motion":15.27583411,"eccentricity":0.0002211,"inclination_deg":43.0021,"raan_deg":214.8566,"arg_perigee_deg":272.8426,"mean_anomaly_deg":87.2172,"bstar":0.00043549,"rev_number":14901,"period_min":94.266538221787,"perigee_km":481.52187630998,"apogee_km":484.55588828513,"semimajor_km":6861.1758822976,"source":"CELESTRAK","updated_at":"2026-05-25T13:38:18.447498Z"}}